N125DZ KSBA-KHND

Flight info

Callsign N125DZ
Flight time 0h 44m
Altitude 41000
Route MISHN5 NNAVY MISEN NTNDO1
Aircraft C750/M-SBDE3FGHRWXY/S

Departure

Time 2026-04-28 03:31
Airport Santa Barbara Municipal Airport (KSBA)

Arrival

Time 2026-04-28 04:15
Airport Henderson Executive Airport (KHND)
Time Latitude Longitude Altitude Speed Heading
2026-04-28 02:39 34.42305 -119.83642 15 ft 0 kts 352°
2026-04-28 03:26 34.42305 -119.83650 15 ft 1 kts 251°
2026-04-28 03:26 34.42280 -119.83680 15 ft 10 kts 234°
2026-04-28 03:27 34.42291 -119.83726 15 ft 6 kts 334°
2026-04-28 03:27 34.42323 -119.83734 15 ft 8 kts 355°
2026-04-28 03:27 34.42418 -119.83760 15 ft 11 kts 344°
2026-04-28 03:27 34.42488 -119.83779 15 ft 10 kts 347°
2026-04-28 03:28 34.42554 -119.83800 15 ft 10 kts 346°
2026-04-28 03:28 34.42617 -119.83819 15 ft 9 kts 345°
2026-04-28 03:28 34.42670 -119.83806 15 ft 8 kts 58°
2026-04-28 03:28 34.42673 -119.83765 15 ft 7 kts 88°
2026-04-28 03:29 34.42673 -119.83705 15 ft 7 kts 89°
2026-04-28 03:29 34.42674 -119.83649 15 ft 6 kts 87°
2026-04-28 03:29 34.42676 -119.83589 15 ft 8 kts 88°
2026-04-28 03:29 34.42678 -119.83512 14 ft 10 kts 89°
2026-04-28 03:30 34.42714 -119.83459 14 ft 8 kts 359°
2026-04-28 03:30 34.42766 -119.83473 15 ft 7 kts 334°
2026-04-28 03:30 34.42790 -119.83534 14 ft 11 kts 278°
2026-04-28 03:30 34.42786 -119.83712 15 ft 52 kts 268°
2026-04-28 03:31 34.42769 -119.84607 58 ft 140 kts 269°
2026-04-28 03:31 34.42790 -119.85857 556 ft 159 kts 272°
2026-04-28 03:31 34.42772 -119.87305 989 ft 183 kts 267°
2026-04-28 03:31 34.42658 -119.88910 1522 ft 206 kts 269°
2026-04-28 03:32 34.42481 -119.90701 2217 ft 225 kts 258°
2026-04-28 03:32 34.41599 -119.92378 2952 ft 252 kts 227°
2026-04-28 03:32 34.40052 -119.93475 3889 ft 263 kts 205°
2026-04-28 03:32 34.38326 -119.94376 4660 ft 279 kts 204°
2026-04-28 03:33 34.36527 -119.95331 5667 ft 283 kts 203°
2026-04-28 03:33 34.34685 -119.96013 6945 ft 275 kts 189°
2026-04-28 03:33 34.32790 -119.95866 8135 ft 272 kts 168°
2026-04-28 03:33 34.31054 -119.94969 9335 ft 277 kts 154°
2026-04-28 03:34 34.29316 -119.93755 9895 ft 300 kts 153°
2026-04-28 03:34 34.27377 -119.92678 10401 ft 316 kts 161°
2026-04-28 03:34 34.25212 -119.91761 10602 ft 343 kts 164°
2026-04-28 03:34 34.22873 -119.90753 10781 ft 367 kts 161°
2026-04-28 03:35 34.20528 -119.89517 11577 ft 370 kts 155°
2026-04-28 03:35 34.18549 -119.87548 12202 ft 381 kts 133°
2026-04-28 03:35 34.17200 -119.84778 12962 ft 386 kts 112°
2026-04-28 03:35 34.16603 -119.81587 13615 ft 391 kts 98°
2026-04-28 03:36 34.16221 -119.78317 14277 ft 395 kts 97°
2026-04-28 03:36 34.15826 -119.75026 14973 ft 397 kts 98°
2026-04-28 03:36 34.15382 -119.71728 15666 ft 400 kts 99°
2026-04-28 03:36 34.14933 -119.68400 16368 ft 402 kts 98°
2026-04-28 03:37 34.14506 -119.65050 17071 ft 405 kts 98°
2026-04-28 03:37 34.14076 -119.61670 17771 ft 409 kts 98°
2026-04-28 03:37 34.13631 -119.58254 18422 ft 414 kts 98°
2026-04-28 03:37 34.13595 -119.54781 19008 ft 418 kts 83°
2026-04-28 03:38 34.14130 -119.51319 19603 ft 421 kts 77°
2026-04-28 03:38 34.14747 -119.47842 20298 ft 425 kts 77°
2026-04-28 03:38 34.15355 -119.44330 20916 ft 430 kts 78°
2026-04-28 03:38 34.15945 -119.40810 21521 ft 436 kts 78°
2026-04-28 03:39 34.16553 -119.37203 22126 ft 441 kts 78°
2026-04-28 03:39 34.17180 -119.33554 22724 ft 447 kts 78°
2026-04-28 03:39 34.17812 -119.29853 23305 ft 452 kts 78°
2026-04-28 03:39 34.18442 -119.26114 23849 ft 458 kts 78°
2026-04-28 03:40 34.19080 -119.22325 24348 ft 462 kts 78°
2026-04-28 03:40 34.19728 -119.18497 24829 ft 467 kts 78°
2026-04-28 03:40 34.20382 -119.14624 25289 ft 473 kts 78°
2026-04-28 03:40 34.21038 -119.10709 25747 ft 478 kts 78°
2026-04-28 03:41 34.21781 -119.06769 26163 ft 483 kts 76°
2026-04-28 03:41 34.22591 -119.02813 26646 ft 488 kts 76°
2026-04-28 03:41 34.23396 -118.98799 27100 ft 493 kts 76°
2026-04-28 03:41 34.24196 -118.94748 27555 ft 499 kts 76°
2026-04-28 03:42 34.25013 -118.90651 28003 ft 504 kts 76°
2026-04-28 03:42 34.25846 -118.86508 28444 ft 509 kts 76°
2026-04-28 03:42 34.26680 -118.82324 28892 ft 515 kts 76°
2026-04-28 03:42 34.27515 -118.78100 29326 ft 520 kts 76°
2026-04-28 03:43 34.28362 -118.73822 29777 ft 525 kts 76°
2026-04-28 03:43 34.29217 -118.69513 30196 ft 530 kts 76°
2026-04-28 03:43 34.30080 -118.65150 30554 ft 535 kts 76°
2026-04-28 03:43 34.30945 -118.60752 30892 ft 540 kts 76°
2026-04-28 03:44 34.31815 -118.56324 31326 ft 542 kts 76°
2026-04-28 03:44 34.32679 -118.51932 31708 ft 546 kts 76°
2026-04-28 03:44 34.33561 -118.47438 32110 ft 550 kts 76°
2026-04-28 03:44 34.34442 -118.42922 32549 ft 553 kts 76°
2026-04-28 03:45 34.35339 -118.38313 32920 ft 558 kts 76°
2026-04-28 03:45 34.36230 -118.33737 33423 ft 560 kts 76°
2026-04-28 03:45 34.37115 -118.29203 33888 ft 562 kts 76°
2026-04-28 03:45 34.38012 -118.24581 34288 ft 566 kts 76°
2026-04-28 03:46 34.38907 -118.19930 34848 ft 565 kts 76°
2026-04-28 03:46 34.39796 -118.15300 35502 ft 561 kts 76°
2026-04-28 03:46 34.40687 -118.10704 36099 ft 559 kts 76°
2026-04-28 03:46 34.41569 -118.06127 36725 ft 557 kts 76°
2026-04-28 03:47 34.42617 -118.01606 36974 ft 561 kts 69°
2026-04-28 03:47 34.44127 -117.97212 36980 ft 570 kts 62°
2026-04-28 03:47 34.47821 -117.88532 36997 ft 590 kts 60°
2026-04-28 03:48 34.49575 -117.84067 36996 ft 601 kts 63°
2026-04-28 03:48 34.51241 -117.79383 36992 ft 608 kts 64°
2026-04-28 03:48 34.54886 -117.70102 36995 ft 610 kts 60°
2026-04-28 03:49 34.58498 -117.60746 37013 ft 612 kts 64°
2026-04-28 03:49 34.62083 -117.51373 37019 ft 612 kts 61°
2026-04-28 03:50 34.65711 -117.42035 37032 ft 611 kts 63°
2026-04-28 03:50 34.69262 -117.32641 37034 ft 611 kts 62°
2026-04-28 03:51 34.72855 -117.23354 37006 ft 611 kts 63°
2026-04-28 03:51 34.76391 -117.13963 36933 ft 610 kts 63°
2026-04-28 03:52 34.78176 -117.09319 36933 ft 596 kts 63°
2026-04-28 03:52 34.79925 -117.04743 36935 ft 598 kts 63°
2026-04-28 03:52 34.83385 -116.95542 36940 ft 598 kts 63°
2026-04-28 03:53 34.86881 -116.86330 36948 ft 598 kts 63°
2026-04-28 03:53 34.90341 -116.77108 36947 ft 599 kts 63°
2026-04-28 03:54 34.94384 -116.68291 36928 ft 594 kts 52°
2026-04-28 03:54 34.99214 -116.60145 36926 ft 594 kts 51°
2026-04-28 03:55 35.03779 -116.51761 36910 ft 589 kts 53°
2026-04-28 03:55 35.07900 -116.43095 36882 ft 594 kts 65°
2026-04-28 03:56 35.09275 -116.38434 36669 ft 583 kts 72°
2026-04-28 03:56 35.10167 -116.33685 35909 ft 564 kts 81°
2026-04-28 03:56 35.10514 -116.29005 35231 ft 544 kts 90°
2026-04-28 03:56 35.10335 -116.24470 34568 ft 525 kts 98°
2026-04-28 03:57 35.09758 -116.20121 33941 ft 515 kts 104°
2026-04-28 03:57 35.09037 -116.15845 33376 ft 515 kts 104°
2026-04-28 03:57 35.08400 -116.11545 32699 ft 516 kts 100°
2026-04-28 03:57 35.08086 -116.07178 32024 ft 518 kts 94°
2026-04-28 03:58 35.07993 -116.02787 31386 ft 517 kts 91°
2026-04-28 03:58 35.07921 -115.98386 30730 ft 518 kts 93°
2026-04-28 03:58 35.07637 -115.94007 30058 ft 514 kts 97°
2026-04-28 03:58 35.07436 -115.89663 29284 ft 511 kts 86°
2026-04-28 03:59 35.08038 -115.85414 28687 ft 506 kts 77°
2026-04-28 03:59 35.08807 -115.81242 28027 ft 500 kts 76°
2026-04-28 03:59 35.09601 -115.77123 27376 ft 495 kts 76°
2026-04-28 03:59 35.10355 -115.73037 26738 ft 490 kts 77°
2026-04-28 04:00 35.11072 -115.68990 26100 ft 485 kts 77°
2026-04-28 04:00 35.11797 -115.64975 25470 ft 481 kts 76°
2026-04-28 04:00 35.12524 -115.61060 24856 ft 478 kts 76°
2026-04-28 04:00 35.13250 -115.57109 24233 ft 473 kts 76°
2026-04-28 04:01 35.13950 -115.53206 23619 ft 468 kts 76°
2026-04-28 04:01 35.14648 -115.49326 22957 ft 465 kts 76°
2026-04-28 04:01 35.15345 -115.45491 22354 ft 460 kts 76°
2026-04-28 04:01 35.16033 -115.41696 21754 ft 455 kts 76°
2026-04-28 04:02 35.16707 -115.37944 21161 ft 450 kts 76°
2026-04-28 04:02 35.17372 -115.34229 20572 ft 445 kts 76°
2026-04-28 04:02 35.18034 -115.30542 19994 ft 442 kts 75°
2026-04-28 04:02 35.18688 -115.26899 19419 ft 436 kts 75°
2026-04-28 04:03 35.19332 -115.23297 18847 ft 431 kts 75°
2026-04-28 04:03 35.19959 -115.19778 18294 ft 426 kts 75°
2026-04-28 04:03 35.20584 -115.16268 17692 ft 420 kts 75°
2026-04-28 04:03 35.21272 -115.12820 17126 ft 413 kts 70°
2026-04-28 04:04 35.22608 -115.09792 16580 ft 401 kts 50°
2026-04-28 04:04 35.24551 -115.07444 16082 ft 386 kts 33°
2026-04-28 04:04 35.26858 -115.05880 15587 ft 377 kts 21°
2026-04-28 04:04 35.29234 -115.04561 15101 ft 373 kts 21°
2026-04-28 04:05 35.31552 -115.03267 14626 ft 355 kts 22°
2026-04-28 04:05 35.33727 -115.02031 14170 ft 334 kts 22°
2026-04-28 04:05 35.35784 -115.00870 13731 ft 318 kts 22°
2026-04-28 04:05 35.37784 -114.99749 13289 ft 313 kts 22°
2026-04-28 04:06 35.39744 -114.98647 12878 ft 308 kts 22°
2026-04-28 04:06 35.41677 -114.97554 12484 ft 304 kts 22°
2026-04-28 04:06 35.43589 -114.96475 12089 ft 301 kts 22°
2026-04-28 04:06 35.45533 -114.95592 11637 ft 297 kts
2026-04-28 04:07 35.47556 -114.95697 11153 ft 289 kts 345°
2026-04-28 04:07 35.49451 -114.96456 10796 ft 285 kts 339°
2026-04-28 04:07 35.51311 -114.97272 10479 ft 283 kts 338°
2026-04-28 04:07 35.53172 -114.98066 10156 ft 283 kts 339°
2026-04-28 04:08 35.55033 -114.98845 9831 ft 282 kts 339°
2026-04-28 04:08 35.56879 -114.99624 9464 ft 280 kts 339°
2026-04-28 04:08 35.58720 -115.00408 9089 ft 279 kts 339°
2026-04-28 04:08 35.60551 -115.01186 8706 ft 277 kts 339°
2026-04-28 04:09 35.62354 -115.01950 8353 ft 272 kts 339°
2026-04-28 04:09 35.64106 -115.02692 8007 ft 261 kts 338°
2026-04-28 04:09 35.65784 -115.03407 7609 ft 250 kts 338°
2026-04-28 04:09 35.67404 -115.04098 7264 ft 243 kts 338°
2026-04-28 04:10 35.68950 -115.04828 6973 ft 230 kts 329°
2026-04-28 04:10 35.70111 -115.05974 6985 ft 206 kts 314°
2026-04-28 04:10 35.71210 -115.07056 6995 ft 205 kts 329°
2026-04-28 04:10 35.72602 -115.07553 6832 ft 214 kts 351°
2026-04-28 04:11 35.74157 -115.07792 6774 ft 225 kts 343°
2026-04-28 04:11 35.75689 -115.08273 6967 ft 232 kts 342°
2026-04-28 04:11 35.77256 -115.08720 7082 ft 233 kts 345°
2026-04-28 04:11 35.78886 -115.08986 6825 ft 239 kts 349°
2026-04-28 04:12 35.80503 -115.09393 6635 ft 234 kts 340°
2026-04-28 04:12 35.82034 -115.10129 6363 ft 239 kts 333°
2026-04-28 04:12 35.83580 -115.10924 6059 ft 244 kts 332°
2026-04-28 04:12 35.85119 -115.11858 5733 ft 247 kts 329°
2026-04-28 04:13 35.86599 -115.12824 5525 ft 236 kts 329°
2026-04-28 04:13 35.88103 -115.13563 5209 ft 231 kts 340°
2026-04-28 04:13 35.89617 -115.13629 4670 ft 206 kts 358°
2026-04-28 04:13 35.90976 -115.13565 4143 ft 183 kts 355°
2026-04-28 04:14 35.92177 -115.13565 3689 ft 164 kts 356°
2026-04-28 04:14 35.93304 -115.13550 3256 ft 155 kts 354°
2026-04-28 04:14 35.94312 -115.13568 3073 ft 140 kts 357°
2026-04-28 04:14 35.94950 -115.13572 2943 ft 134 kts 358°
2026-04-28 04:15 35.95842 -115.13565 2658 ft 123 kts
2026-04-28 04:15 35.96675 -115.13550 2468 ft 114 kts
2026-04-28 04:15 35.97760 -115.13535 2433 ft 33 kts
2026-04-28 04:16 35.97952 -115.13535 2427 ft 23 kts 359°
2026-04-28 04:16 35.98030 -115.13577 2423 ft 11 kts 271°
2026-04-28 04:16 35.98030 -115.13656 2423 ft 4 kts 268°
2026-04-28 04:16 35.98006 -115.13682 2424 ft 6 kts 196°
2026-04-28 04:17 35.97976 -115.13685 2425 ft 3 kts 178°
2026-04-28 04:17 35.97960 -115.13685 2426 ft 6 kts 180°
2026-04-28 04:17 35.97925 -115.13686 2427 ft 4 kts 182°
2026-04-28 04:17 35.97901 -115.13688 2427 ft 5 kts 185°
2026-04-28 04:18 35.97869 -115.13717 2428 ft 6 kts 262°
2026-04-28 04:18 35.97854 -115.13737 2428 ft 3 kts 191°
2026-04-28 04:18 35.97848 -115.13737 2427 ft 0 kts 179°